Starlink 32243

operational
NORAD ID: 60367 Int'l Des: 2024-138 Owner: SPXS Country: US Constellation: starlink
LEOCIRCULAR

Starlink 32243について

説明を読み込み中...

リアルタイム位置

3D地球を読み込み中...

次回通過

高度履歴

Altitude vs Time

uPlot chart will show altitude changes over time

軌道要素

1 60367U 24138N 25260.65102825 .00000321 00000-0 22972-4 0 9996
2 60367 53.1620 33.4167 0001241 73.3457 286.7680 15.30204780 64133
Epoch: Sep 17, 2025 • Age: 25 hours

現在のステータス

高度 480.7 km
速度 7.63 km/s
衛星直下点 -19.38°S, 126.55°E
打ち上げ日 Aug 4, 2024
運用期間 1.1 years
タイプ internet

技術仕様

分類 Payload
質量 730.00 kg
乾燥質量 700.00 kg
総質量 730.00 kg
長さ 0.30 m
直径 4.10 m
スパン 29.00 m
形状 Box + pan
製造者 SPXS
バスタイプ Starlink V2M
フェーズステータス In Orbit
所有者/国 SPXS/US

大規模コンステレーション

Loading constellations...